Regional Weather Roundup
Issued by NWS Goodland, KS

Home | Current Version | Previous Version | Text Only | Print | Product List | Glossary Off
Versions: 1 2 3 4 5 6 7 8 9 10 11 12 13 14 15 16 17 18 19 20 21 22 23 24 25 26 27 28 29 30 31 32 33 34 35 36 37 38 39 40 41 42 43 44 45 46 47 48 49 50

000
ASUS43 KGLD 092308
RWRGLD

GOODLAND FORECAST AREA HOURLY WEATHER ROUNDUP
NATIONAL WEATHER SERVICE GOODLAND KS
500 PM MDT WED JUL 09 2014

...OFFICIAL OBSERVATIONS...

CITY           SKY/WX    TMP DP  RH WIND       PRES   REMARKS
GOODLAND KS    SUNNY     86  61  42 S23G31    29.97F
HILL CITY KS   SUNNY     90  55  30 S21G28    29.95F
IMPERIAL NEB   SUNNY     92  58  31 S17       29.93F
MCCOOK NEB     SUNNY     89  61  38 S18G25    29.93F
AKRON CO       PTSUNNY   89  49  25 S20G26    29.98F
BURLINGTON CO  SUNNY     89  54  30 S15       29.98F
LIMON CO       PTSUNNY   87  42  20 S18       30.04F
$$

...UNOFFICIAL OBSERVATIONS...

CITY           SKY/WX    TMP DP  RH WIND       PRES   REMARKS
COLBY KS       SUNNY     88  64  45 S21G28    29.98S
GOVE KS          N/A     86  32  14 CALM        N/A
LENORA KS        N/A     87  32  14 MISG        N/A
NORTON KS      SUNNY     90  48  24 S17G25    29.94F
OBERLIN KS     FAIR      90  55  31 S17G28    29.94F
SHARON SPRINGS   N/A     91  60  35 S15G26      N/A
ST FRANCIS KS  SUNNY     90  52  27 S24       29.94
TRIBUNE KS     MOSUNNY   90 N/A N/A SE20G26   29.98
WAKEENEY KS      N/A     88  51  27 MISG        N/A
YUMA CO          N/A     87  57  36 SE20        N/A
$$


USA.gov is the U.S. government's official web portal to all federal, state and local government web resources and services.